EJU12KB LFLL-LIEO

Flight info

Callsign EJU12KB
Flight time 1h 11m
Altitude 22000
Route RISOR T47 GEMLA/N0367F230 DCT VANAS DCT MEDAM DCT NITAM DCT MOGBO/N0427F350 DCT ENOBA DCT ERTEV DCT TORTU DCT RAPUR DCT OKBON DCT BEBEV DCT AJO DCT CORSI
Aircraft A319/M-SDE2E3FGIJ1RWXYZ/LB1

Departure

Time 2026-04-29 09:53
Airport Lyon Saint-Exupéry Airport (LFLL)

Arrival

Time 2026-04-29 11:05
Airport Olbia Costa Smeralda Airport (LIEO)
Time Latitude Longitude Altitude Speed Heading
2026-04-29 09:25 45.71528 5.08121 802 ft 0 kts 15°
2026-04-29 09:45 45.71522 5.08119 802 ft 4 kts 15°
2026-04-29 09:45 45.71497 5.08109 802 ft 2 kts 17°
2026-04-29 09:45 45.71476 5.08098 802 ft 4 kts 31°
2026-04-29 09:45 45.71457 5.08074 802 ft 4 kts 66°
2026-04-29 09:46 45.71453 5.08047 801 ft 1 kts 104°
2026-04-29 09:48 45.71453 5.08048 801 ft 1 kts 104°
2026-04-29 09:48 45.71449 5.08071 801 ft 4 kts 104°
2026-04-29 09:48 45.71438 5.08134 802 ft 9 kts 104°
2026-04-29 09:48 45.71420 5.08236 803 ft 12 kts 104°
2026-04-29 09:49 45.71402 5.08349 804 ft 10 kts 88°
2026-04-29 09:49 45.71416 5.08449 806 ft 10 kts 80°
2026-04-29 09:49 45.71396 5.08519 810 ft 7 kts 149°
2026-04-29 09:49 45.71335 5.08535 812 ft 11 kts 172°
2026-04-29 09:50 45.71254 5.08547 812 ft 12 kts 174°
2026-04-29 09:50 45.71166 5.08564 815 ft 13 kts 158°
2026-04-29 09:50 45.71115 5.08657 817 ft 12 kts 108°
2026-04-29 09:50 45.71091 5.08776 813 ft 13 kts 105°
2026-04-29 09:51 45.71075 5.08913 821 ft 14 kts 85°
2026-04-29 09:51 45.71141 5.09020 820 ft 13 kts 18°
2026-04-29 09:51 45.71169 5.09021 819 ft 0 kts 355°
2026-04-29 09:52 45.71171 5.09021 819 ft 2 kts 355°
2026-04-29 09:52 45.71206 5.09017 818 ft 25 kts 355°
2026-04-29 09:53 45.71674 5.08963 815 ft 106 kts 355°
2026-04-29 09:53 45.72627 5.08846 792 ft 167 kts 355°
2026-04-29 09:53 45.73856 5.08709 1330 ft 173 kts 356°
2026-04-29 09:53 45.75076 5.08559 2079 ft 175 kts 357°
2026-04-29 09:54 45.76364 5.08431 2552 ft 194 kts 357°
2026-04-29 09:54 45.77778 5.08263 2958 ft 219 kts 356°
2026-04-29 09:54 45.79383 5.08059 3546 ft 244 kts 355°
2026-04-29 09:54 45.81123 5.07832 4478 ft 254 kts 356°
2026-04-29 09:55 45.82883 5.08051 5374 ft 259 kts 24°
2026-04-29 09:55 45.84264 5.09642 6262 ft 259 kts 60°
2026-04-29 09:55 45.84733 5.12073 7078 ft 256 kts 97°
2026-04-29 09:55 45.84103 5.14407 7967 ft 255 kts 132°
2026-04-29 09:56 45.82640 5.15800 8839 ft 256 kts 161°
2026-04-29 09:56 45.80924 5.16531 9780 ft 259 kts 167°
2026-04-29 09:56 45.79157 5.17126 10618 ft 262 kts 168°
2026-04-29 09:56 45.77372 5.17759 11439 ft 266 kts 166°
2026-04-29 09:57 45.75570 5.18479 12267 ft 270 kts 164°
2026-04-29 09:57 45.73770 5.19277 13085 ft 273 kts 162°
2026-04-29 09:57 45.72049 5.20472 13887 ft 278 kts 146°
2026-04-29 09:57 45.70587 5.22390 14278 ft 298 kts 129°
2026-04-29 09:58 45.69343 5.24910 14509 ft 322 kts 125°
2026-04-29 09:58 45.68026 5.27630 14804 ft 340 kts 125°
2026-04-29 09:58 45.66662 5.30434 15412 ft 347 kts 125°
2026-04-29 09:58 45.65272 5.33278 16084 ft 351 kts 126°
2026-04-29 09:59 45.63861 5.36146 16793 ft 354 kts 126°
2026-04-29 09:59 45.62433 5.39037 17470 ft 358 kts 126°
2026-04-29 09:59 45.60987 5.41960 18156 ft 362 kts 126°
2026-04-29 09:59 45.59522 5.44923 18746 ft 367 kts 126°
2026-04-29 10:00 45.58044 5.47909 19322 ft 372 kts 126°
2026-04-29 10:00 45.56539 5.50947 19882 ft 377 kts 126°
2026-04-29 10:00 45.54992 5.54059 20440 ft 382 kts 126°
2026-04-29 10:00 45.53454 5.57171 21008 ft 386 kts 124°
2026-04-29 10:01 45.52203 5.60578 21573 ft 391 kts 112°
2026-04-29 10:01 45.51459 5.64325 22140 ft 395 kts 99°
2026-04-29 10:01 45.51272 5.68248 22695 ft 400 kts 87°
2026-04-29 10:01 45.51586 5.72202 23245 ft 404 kts 82°
2026-04-29 10:02 45.51973 5.76204 23785 ft 408 kts 82°
2026-04-29 10:02 45.52361 5.80270 24249 ft 412 kts 82°
2026-04-29 10:02 45.52742 5.84332 24708 ft 415 kts 82°
2026-04-29 10:02 45.53118 5.88422 25154 ft 418 kts 82°
2026-04-29 10:03 45.53495 5.92546 25608 ft 421 kts 82°
2026-04-29 10:03 45.53872 5.96698 26044 ft 424 kts 82°
2026-04-29 10:03 45.54253 6.00881 26476 ft 427 kts 82°
2026-04-29 10:03 45.54638 6.05094 26905 ft 430 kts 82°
2026-04-29 10:04 45.55024 6.09337 27328 ft 433 kts 82°
2026-04-29 10:04 45.55411 6.13608 27743 ft 435 kts 82°
2026-04-29 10:04 45.55801 6.17901 28146 ft 439 kts 82°
2026-04-29 10:04 45.56190 6.22237 28556 ft 442 kts 82°
2026-04-29 10:05 45.56576 6.26601 28969 ft 445 kts 82°
2026-04-29 10:05 45.56737 6.31022 29365 ft 449 kts 91°
2026-04-29 10:05 45.56402 6.35465 29770 ft 453 kts 100°
2026-04-29 10:05 45.55576 6.39804 30153 ft 456 kts 110°
2026-04-29 10:06 45.54401 6.44029 30476 ft 459 kts 112°
2026-04-29 10:06 45.53209 6.48252 30790 ft 461 kts 112°
2026-04-29 10:06 45.52009 6.52502 31141 ft 463 kts 112°
2026-04-29 10:06 45.50801 6.56775 31475 ft 465 kts 111°
2026-04-29 10:07 45.49585 6.61061 31813 ft 467 kts 112°
2026-04-29 10:07 45.48370 6.65345 32291 ft 466 kts 111°
2026-04-29 10:07 45.47041 6.69544 32761 ft 465 kts 118°
2026-04-29 10:07 45.45298 6.73403 33207 ft 463 kts 128°
2026-04-29 10:08 45.43166 6.76829 33656 ft 462 kts 137°
2026-04-29 10:08 45.40703 6.79743 34088 ft 460 kts 146°
2026-04-29 10:08 45.38085 6.82355 34496 ft 459 kts 147°
2026-04-29 10:08 45.35473 6.84959 34921 ft 458 kts 147°
2026-04-29 10:09 45.32874 6.87559 35330 ft 456 kts 147°
2026-04-29 10:09 45.30285 6.90153 35722 ft 455 kts 147°
2026-04-29 10:09 45.27708 6.92737 36087 ft 454 kts 146°
2026-04-29 10:09 45.25274 6.95602 36453 ft 455 kts 138°
2026-04-29 10:10 45.23008 6.98740 36790 ft 455 kts 138°
2026-04-29 10:10 45.20741 7.01871 37093 ft 455 kts 138°
2026-04-29 10:10 45.16227 7.08070 37162 ft 449 kts 138°
2026-04-29 10:11 45.11757 7.14205 37189 ft 446 kts 137°
2026-04-29 10:11 45.07941 7.21158 37193 ft 449 kts 127°
2026-04-29 10:12 45.04360 7.28384 37192 ft 448 kts 127°
2026-04-29 10:12 45.00767 7.35593 37187 ft 449 kts 127°
2026-04-29 10:13 44.96918 7.42483 37105 ft 445 kts 139°
2026-04-29 10:13 44.92428 7.48482 37104 ft 444 kts 139°
2026-04-29 10:14 44.87936 7.54463 37108 ft 444 kts 139°
2026-04-29 10:14 44.83446 7.60438 37120 ft 444 kts 139°
2026-04-29 10:15 44.78957 7.66414 37115 ft 444 kts 139°
2026-04-29 10:15 44.74454 7.72379 37116 ft 444 kts 139°
2026-04-29 10:16 44.70685 7.77364 37110 ft 444 kts 139°
2026-04-29 10:16 44.65452 7.84281 37116 ft 444 kts 139°
2026-04-29 10:17 44.60943 7.90210 37117 ft 444 kts 139°
2026-04-29 10:17 44.56435 7.96130 37114 ft 444 kts 139°
2026-04-29 10:18 44.51921 8.02043 37106 ft 444 kts 139°
2026-04-29 10:18 44.47407 8.07944 37095 ft 444 kts 139°
2026-04-29 10:19 44.42892 8.13843 37091 ft 444 kts 139°
2026-04-29 10:19 44.38369 8.19737 37081 ft 444 kts 139°
2026-04-29 10:20 44.33844 8.25611 37083 ft 444 kts 139°
2026-04-29 10:20 44.29251 8.31358 37061 ft 442 kts 146°
2026-04-29 10:21 44.24255 8.36344 37069 ft 441 kts 147°
2026-04-29 10:21 44.19262 8.41313 37067 ft 441 kts 147°
2026-04-29 10:22 44.14300 8.46246 37073 ft 441 kts 147°
2026-04-29 10:22 44.09305 8.51204 37063 ft 441 kts 147°
2026-04-29 10:23 44.04312 8.56144 37071 ft 440 kts 147°
2026-04-29 10:23 43.99321 8.61078 37073 ft 440 kts 147°
2026-04-29 10:24 43.94337 8.65991 37069 ft 440 kts 147°
2026-04-29 10:24 43.89338 8.70911 37061 ft 440 kts 147°
2026-04-29 10:25 43.84357 8.75800 37067 ft 439 kts 147°
2026-04-29 10:25 43.79370 8.80687 37072 ft 439 kts 147°
2026-04-29 10:26 43.74387 8.85552 37068 ft 438 kts 147°
2026-04-29 10:26 43.69401 8.90410 37065 ft 438 kts 147°
2026-04-29 10:27 43.64113 8.94425 37059 ft 431 kts 164°
2026-04-29 10:27 43.61230 8.95471 37057 ft 427 kts 174°
2026-04-29 10:28 43.55356 8.95828 37051 ft 422 kts 183°
2026-04-29 10:28 43.49470 8.95816 37052 ft 423 kts 183°
2026-04-29 10:29 43.43604 8.95680 37033 ft 419 kts 193°
2026-04-29 10:29 43.38924 8.94118 37035 ft 417 kts 195°
2026-04-29 10:30 43.33218 8.92446 37030 ft 416 kts 196°
2026-04-29 10:30 43.27785 8.89967 37021 ft 413 kts 205°
2026-04-29 10:31 43.22540 8.86746 37019 ft 413 kts 207°
2026-04-29 10:31 43.17267 8.83495 37026 ft 413 kts 206°
2026-04-29 10:32 43.12001 8.80451 37021 ft 414 kts 205°
2026-04-29 10:32 43.06673 8.77467 37013 ft 414 kts 204°
2026-04-29 10:33 43.01347 8.74481 37011 ft 414 kts 205°
2026-04-29 10:33 42.96029 8.71480 37012 ft 414 kts 205°
2026-04-29 10:34 42.90714 8.68478 37007 ft 413 kts 204°
2026-04-29 10:34 42.85398 8.65480 36991 ft 413 kts 204°
2026-04-29 10:35 42.80084 8.62486 37000 ft 413 kts 204°
2026-04-29 10:35 42.74769 8.59507 36996 ft 413 kts 204°
2026-04-29 10:36 42.69451 8.56538 36988 ft 413 kts 204°
2026-04-29 10:36 42.64136 8.53574 36991 ft 413 kts 204°
2026-04-29 10:37 42.58819 8.50603 36990 ft 413 kts 204°
2026-04-29 10:37 42.53500 8.47635 36993 ft 413 kts 204°
2026-04-29 10:38 42.48139 8.44807 36992 ft 415 kts 197°
2026-04-29 10:38 42.42383 8.43973 36991 ft 420 kts 181°
2026-04-29 10:39 42.36539 8.44157 36992 ft 420 kts 181°
2026-04-29 10:39 42.30689 8.44324 36991 ft 420 kts 181°
2026-04-29 10:40 42.24837 8.44528 36637 ft 422 kts 177°
2026-04-29 10:40 42.21930 8.45194 36371 ft 426 kts 167°
2026-04-29 10:40 42.19134 8.46519 36053 ft 426 kts 158°
2026-04-29 10:40 42.16516 8.48379 35541 ft 425 kts 153°
2026-04-29 10:41 42.13942 8.50304 35043 ft 423 kts 153°
2026-04-29 10:41 42.11374 8.52218 34541 ft 421 kts 153°
2026-04-29 10:41 42.08809 8.54118 34024 ft 420 kts 153°
2026-04-29 10:41 42.06254 8.56004 33492 ft 418 kts 153°
2026-04-29 10:42 42.03717 8.57874 33005 ft 415 kts 153°
2026-04-29 10:42 42.01161 8.59758 32507 ft 412 kts 153°
2026-04-29 10:42 41.98656 8.61603 32015 ft 409 kts 153°
2026-04-29 10:42 41.96169 8.63434 31543 ft 407 kts 153°
2026-04-29 10:43 41.93687 8.65262 31066 ft 405 kts 153°
2026-04-29 10:43 41.91223 8.67075 30603 ft 404 kts 153°
2026-04-29 10:43 41.88762 8.68884 30140 ft 402 kts 153°
2026-04-29 10:43 41.86315 8.70681 29646 ft 400 kts 153°
2026-04-29 10:44 41.83884 8.72464 29200 ft 396 kts 153°
2026-04-29 10:44 41.81475 8.74228 28770 ft 393 kts 153°
2026-04-29 10:44 41.79073 8.75945 28352 ft 389 kts 157°
2026-04-29 10:44 41.76550 8.77171 27942 ft 383 kts 168°
2026-04-29 10:45 41.73940 8.77755 27516 ft 378 kts 178°
2026-04-29 10:45 41.71327 8.77966 27104 ft 375 kts 179°
2026-04-29 10:45 41.68735 8.78179 26683 ft 372 kts 179°
2026-04-29 10:45 41.66161 8.78399 26250 ft 369 kts 178°
2026-04-29 10:46 41.63606 8.78622 25827 ft 367 kts 179°
2026-04-29 10:46 41.61065 8.78844 25387 ft 365 kts 179°
2026-04-29 10:46 41.58543 8.79094 25064 ft 360 kts 176°
2026-04-29 10:46 41.56100 8.79491 24937 ft 349 kts 174°
2026-04-29 10:47 41.53708 8.79983 24560 ft 347 kts 173°
2026-04-29 10:47 41.51331 8.80518 24132 ft 346 kts 173°
2026-04-29 10:47 41.48960 8.81057 23694 ft 345 kts 173°
2026-04-29 10:47 41.46589 8.81584 23188 ft 345 kts 173°
2026-04-29 10:48 41.44231 8.82089 22752 ft 342 kts 174°
2026-04-29 10:48 41.41886 8.82578 22322 ft 340 kts 175°
2026-04-29 10:48 41.39560 8.83057 21903 ft 338 kts 175°
2026-04-29 10:48 41.37241 8.83531 21483 ft 336 kts 174°
2026-04-29 10:49 41.34940 8.83996 21073 ft 334 kts 175°
2026-04-29 10:49 41.32647 8.84459 20668 ft 333 kts 174°
2026-04-29 10:49 41.30365 8.84926 20263 ft 331 kts 175°
2026-04-29 10:49 41.28088 8.85389 19862 ft 330 kts 174°
2026-04-29 10:50 41.25820 8.85849 19453 ft 329 kts 175°
2026-04-29 10:50 41.23559 8.86305 19056 ft 328 kts 174°
2026-04-29 10:50 41.21303 8.86760 18654 ft 328 kts 174°
2026-04-29 10:50 41.19051 8.87216 18261 ft 327 kts 174°
2026-04-29 10:51 41.16804 8.87672 17830 ft 326 kts 174°
2026-04-29 10:51 41.14567 8.88126 17437 ft 324 kts 174°
2026-04-29 10:51 41.12346 8.88578 17048 ft 322 kts 174°
2026-04-29 10:51 41.10139 8.89025 16678 ft 320 kts 174°
2026-04-29 10:52 41.07943 8.89467 16299 ft 318 kts 174°
2026-04-29 10:52 41.05760 8.89908 15933 ft 317 kts 175°
2026-04-29 10:52 41.03582 8.90348 15562 ft 316 kts 175°
2026-04-29 10:52 41.01413 8.90784 15197 ft 315 kts 175°
2026-04-29 10:53 40.99250 8.91219 14829 ft 314 kts 175°
2026-04-29 10:53 40.97094 8.91655 14471 ft 313 kts 175°
2026-04-29 10:53 40.94940 8.92088 14106 ft 313 kts 175°
2026-04-29 10:53 40.92788 8.92522 13735 ft 312 kts 175°
2026-04-29 10:54 40.90643 8.92956 13338 ft 311 kts 175°
2026-04-29 10:54 40.88509 8.93385 12966 ft 309 kts 175°
2026-04-29 10:54 40.86389 8.93809 12590 ft 307 kts 175°
2026-04-29 10:54 40.84283 8.94232 12229 ft 306 kts 175°
2026-04-29 10:55 40.82189 8.94654 11849 ft 303 kts 174°
2026-04-29 10:55 40.80114 8.95071 11513 ft 300 kts 174°
2026-04-29 10:55 40.78091 8.95478 11380 ft 289 kts 174°
2026-04-29 10:55 40.76129 8.95874 11256 ft 280 kts 174°
2026-04-29 10:56 40.74290 8.96621 11132 ft 276 kts 156°
2026-04-29 10:56 40.72696 8.97984 11010 ft 270 kts 148°
2026-04-29 10:56 40.71180 8.99403 10773 ft 266 kts 148°
2026-04-29 10:56 40.69632 9.00835 10114 ft 279 kts 148°
2026-04-29 10:57 40.67999 9.02337 9357 ft 293 kts 148°
2026-04-29 10:57 40.66541 9.04247 8753 ft 303 kts 122°
2026-04-29 10:57 40.65991 9.06931 8246 ft 311 kts 91°
2026-04-29 10:57 40.66547 9.09673 7789 ft 313 kts 63°
2026-04-29 10:58 40.67767 9.12058 7281 ft 315 kts 51°
2026-04-29 10:58 40.69205 9.14246 6755 ft 317 kts 49°
2026-04-29 10:58 40.70693 9.16453 6234 ft 317 kts 50°
2026-04-29 10:58 40.72213 9.18557 5728 ft 316 kts 46°
2026-04-29 10:59 40.73600 9.20747 5493 ft 304 kts 56°
2026-04-29 10:59 40.74761 9.22994 5368 ft 290 kts 58°
2026-04-29 10:59 40.75869 9.25150 5230 ft 279 kts 57°
2026-04-29 10:59 40.76956 9.27211 4887 ft 266 kts 56°
2026-04-29 11:00 40.77986 9.29157 4493 ft 254 kts 56°
2026-04-29 11:00 40.78973 9.31026 4117 ft 241 kts 57°
2026-04-29 11:00 40.79904 9.32794 3753 ft 230 kts 57°
2026-04-29 11:00 40.80797 9.34488 3408 ft 219 kts 57°
2026-04-29 11:01 40.81637 9.36084 3110 ft 205 kts 57°
2026-04-29 11:01 40.82430 9.37591 2794 ft 194 kts 57°
2026-04-29 11:01 40.83183 9.39024 2502 ft 185 kts 56°
2026-04-29 11:01 40.83905 9.40397 2216 ft 175 kts 57°
2026-04-29 11:02 40.84577 9.41676 1965 ft 164 kts 56°
2026-04-29 11:02 40.85212 9.42885 1711 ft 156 kts 57°
2026-04-29 11:02 40.85815 9.44032 1467 ft 147 kts 57°
2026-04-29 11:02 40.86382 9.45113 1254 ft 141 kts 57°
2026-04-29 11:03 40.86928 9.46155 1052 ft 134 kts 56°
2026-04-29 11:03 40.87463 9.47175 806 ft 135 kts 58°
2026-04-29 11:03 40.87991 9.48159 621 ft 131 kts 57°
2026-04-29 11:03 40.88520 9.49142 414 ft 131 kts 58°
2026-04-29 11:04 40.89026 9.50125 209 ft 129 kts 60°
2026-04-29 11:04 40.89524 9.51099 44 ft 123 kts 63°
2026-04-29 11:04 40.89940 9.51908 32 ft 85 kts 55°
2026-04-29 11:04 40.90193 9.52388 35 ft 53 kts 55°
2026-04-29 11:05 40.90364 9.52686 34 ft 19 kts 23°
2026-04-29 11:05 40.90454 9.52620 34 ft 15 kts 273°
2026-04-29 11:05 40.90456 9.52527 34 ft 15 kts 264°
2026-04-29 11:05 40.90406 9.52403 33 ft 16 kts 235°
2026-04-29 11:06 40.90342 9.52280 34 ft 17 kts 235°
2026-04-29 11:06 40.90274 9.52151 34 ft 17 kts 235°
2026-04-29 11:06 40.90203 9.52016 34 ft 18 kts 235°
2026-04-29 11:06 40.90178 9.51896 34 ft 13 kts 276°
2026-04-29 11:07 40.90215 9.51796 34 ft 7 kts 313°
2026-04-29 11:07 40.90209 9.51736 34 ft 8 kts 232°
2026-04-29 11:07 40.90177 9.51676 34 ft 8 kts 235°
2026-04-29 11:07 40.90142 9.51609 34 ft 9 kts 235°
2026-04-29 11:08 40.90103 9.51535 34 ft 10 kts 235°
2026-04-29 11:08 40.90069 9.51459 34 ft 7 kts 254°
2026-04-29 11:08 40.90059 9.51417 34 ft 1 kts 244°
2026-04-29 11:08 40.90055 9.51402 32 ft 2 kts 258°
2026-04-29 11:09 40.90065 9.51382 34 ft 4 kts 322°
2026-04-29 11:09 40.90098 9.51385 34 ft 4 kts 19°
2026-04-29 11:09 40.90109 9.51392 34 ft 1 kts 32°
2026-04-29 11:09 40.90114 9.51394 34 ft 0 kts 23°